Tracking 20083 objects as of 8-Dec-2019
HD Live streaming from Space Station
objects crossing your sky now

TITAN 3C TRANSTAGE DEB

Track TITAN 3C TRANSTAGE DEB now!


NORAD ID: 26777
Int'l Code: 1965-108AV
Perigee: 1,137.4 km
Apogee: 31,189.2 km
Inclination: 26.9 °
Period: 561.1 minutes
Semi major axis: 22534 km
RCS: 0.1056 m2 (medium)
Launch date: December 21, 1965
Source: United States (US)
Launch site: AIR FORCE EASTERN TEST RANGE (AFETR)

Note: This is SATELLITE DEBRIS
aabbcc
Your satellite tracking list
Your tracking list is empty




NASA's NSSDC Master Catalog

Two Line Element Set (TLE):
1 26777U 65108AV  18262.59839578 -.00000168 +00000-0 +00000-0 0  9998
2 26777 026.9167 115.9305 6668026 216.2877 354.3600 02.56647321174912
Source of the keplerian elements: AFSPC